Theta_e
314 318 322 326 321 314 318 318 316 317 317 318 320 321 321 322 323 323 331 330 337 339 339 334 336 335 334 333 332 331 331 330 329 327 326 330 332 328 322 315 312 312 315 316 316 316 317 318 318
318 322 324 324 318 314 314 315 316 317 318 319 319 319 320 322 326 329 327 332 338 340 336 335 337 336 334 334 332 331 331 330 328 326 325 328 328 326 322 318 316 310 310 314 315 315 314 314 316
321 321 323 318 315 315 316 314 314 318 318 318 318 320 321 323 326 325 328 332 340 338 337 335 336 338 336 334 333 330 330 331 328 325 324 326 328 324 321 320 319 315 310 311 312 312 312 312 312
322 323 322 315 318 315 315 313 317 317 318 318 318 317 322 326 324 325 333 333 339 337 337 336 338 337 338 335 332 331 330 331 328 327 326 328 327 326 323 322 320 319 316 311 309 309 309 309 309
321 322 317 316 317 316 316 317 318 316 317 317 319 317 319 325 328 328 333 334 336 338 339 337 337 337 336 336 335 333 332 332 330 329 329 329 329 329 329 328 326 324 322 321 317 309 307 306 304
322 320 316 315 315 316 317 319 319 315 316 317 318 317 317 322 325 329 332 334 334 337 336 337 336 336 336 336 336 335 335 333 332 332 332 331 331 331 330 330 329 327 325 323 322 320 314 305 303
319 314 317 316 314 316 317 319 316 315 316 316 317 314 315 319 321 324 328 328 329 332 334 336 336 336 336 336 336 335 335 334 333 332 332 330 330 331 331 330 328 326 325 324 323 322 321 317 306
318 313 316 315 314 316 317 318 317 317 316 316 316 313 313 314 317 317 317 320 322 326 327 327 333 335 335 336 336 335 334 334 334 333 331 329 329 330 331 329 327 326 324 323 322 321 320 320 319
315 310 313 316 316 316 317 316 317 317 316 316 315 316 315 313 315 316 316 317 318 321 323 324 324 323 329 333 335 335 334 333 333 333 331 330 330 331 330 329 327 326 325 323 323 322 321 320 319
316 311 316 315 315 315 317 317 317 316 316 314 313 313 313 313 315 316 316 315 315 316 317 319 320 320 322 326 333 334 332 331 332 333 332 331 332 332 332 329 327 326 325 324 323 322 322 321 321
317 313 314 316 317 317 317 317 317 316 314 315 315 313 312 313 315 315 315 315 314 314 314 314 315 317 320 322 325 332 331 332 332 334 333 333 334 331 329 328 327 325 325 324 323 322 322 321 321
315 315 316 317 317 318 316 317 317 317 315 316 316 313 313 312 312 313 312 312 312 312 312 312 312 312 314 321 325 334 334 335 334 334 333 332 331 330 328 327 327 327 325 324 324 322 322 321 321
316 316 316 317 317 317 317 317 316 315 315 315 314 313 313 313 312 312 312 312 312 313 313 312 312 312 312 317 326 334 331 332 332 330 331 331 331 329 327 327 325 324 324 323 323 322 322 322 321
316 316 317 317 316 316 316 316 316 315 315 314 313 312 312 312 312 312 313 313 313 313 313 313 312 313 313 317 329 331 328 329 329 329 330 330 328 327 325 326 325 324 324 324 324 322 323 323 322
316 314 314 315 316 315 315 313 313 315 314 313 312 312 311 311 311 312 312 312 312 312 312 312 312 312 313 320 329 326 327 326 327 327 327 326 325 325 325 324 324 323 322 322 323 323 321 320 319
315 314 315 315 314 314 314 313 314 314 313 312 311 311 311 310 311 311 311 311 311 312 312 312 312 313 314 326 326 324 325 325 325 323 324 325 325 323 323 321 320 321 321 320 320 319 318 317 317
314 314 314 316 313 312 312 313 312 312 312 312 311 311 310 309 309 310 310 311 311 311 312 312 312 315 321 325 324 324 324 324 324 322 323 324 322 321 321 320 320 320 319 318 316 315 313 312 312
315 315 316 316 314 313 312 311 312 312 312 312 311 310 310 310 310 309 309 310 310 311 312 313 314 318 322 322 322 323 322 323 322 321 323 322 320 319 318 318 318 316 314 313 311 309 307 305 304
315 316 316 315 314 313 312 312 311 313 312 311 311 311 310 310 309 309 309 309 310 311 312 314 318 319 320 321 322 322 322 321 321 321 320 318 316 314 314 311 309 307 305 304 303 301 300 300 298
314 314 314 314 313 312 312 312 312 311 311 312 312 312 311 309 308 308 308 308 310 312 312 316 318 318 320 320 321 321 320 320 320 319 316 313 309 307 305 304 303 301 300 298 297 297 297 297 297
315 315 314 315 313 312 312 312 312 312 312 313 312 313 311 311 310 308 307 308 311 312 313 317 317 317 318 318 319 319 318 319 317 313 308 304 303 302 300 299 298 297 297 297 296 295 295 294 294
315 314 315 315 315 315 312 316 314 313 312 309 312 311 312 310 309 309 308 308 311 313 313 315 316 316 316 316 318 318 319 316 308 304 303 301 299 298 297 297 296 296 296 295 295 294 293 293 292
315 314 315 314 314 315 314 314 314 314 315 315 312 310 311 311 310 309 308 308 310 313 313 313 314 315 316 317 318 318 314 306 303 301 300 298 297 296 296 296 295 295 294 294 293 293 292 292 291
311 313 313 313 313 315 315 315 316 317 316 316 314 311 311 310 309 309 307 306 309 313 314 314 315 316 317 316 316 310 305 304 302 299 298 297 296 296 295 295 294 294 293 293 292 292 291 291 289
313 313 316 317 315 319 314 315 318 315 314 313 312 310 310 310 308 307 306 306 307 311 313 314 315 315 314 312 306 303 302 301 299 298 297 297 296 295 295 294 294 293 293 292 292 291 290 289 288
312 314 316 319 318 317 311 315 316 314 315 312 313 314 310 307 307 306 306 306 306 309 310 311 311 311 308 304 302 301 299 298 297 297 297 297 296 295 295 294 293 293 292 292 291 290 289 289 288
312 315 315 317 302 310 315 313 312 309 308 309 310 309 307 306 306 305 305 305 306 308 309 308 308 306 303 301 300 298 298 297 297 297 297 296 295 295 294 293 292 292 291 290 290 289 288 288 287
313 312 315 312 314 315 316 316 318 313 310 306 306 306 305 304 305 305 305 304 305 306 306 305 304 302 302 300 299 298 298 297 297 297 296 295 295 294 293 292 292 291 290 290 289 288 288 287 287
313 313 314 315 313 317 317 318 312 314 311 307 306 307 307 305 304 304 304 303 303 303 304 303 302 301 300 299 298 298 297 297 297 296 295 295 294 293 292 291 291 290 290 289 288 288 288 287 287
312 314 312 317 315 311 313 320 309 311 309 309 308 307 307 306 305 304 303 303 302 301 301 301 301 300 299 298 297 297 297 297 296 296 295 294 293 292 291 291 290 290 289 289 288 288 288 287 287
Wind_Speed
1 0 2 4 4 5 2 3 4 3 4 7 21 25 13 12 4 6 7 3 6 8 9 10 10 11 12 11 11 10 9 10 10 10 11 10 8 11 13 16 17 17 13 11 11 11 10 9 9
3 2 3 3 5 4 2 4 8 3 10 23 24 21 17 5 15 13 7 13 9 9 11 12 11 10 10 9 8 8 8 8 9 9 10 9 7 10 11 13 15 15 15 12 11 10 10 9 8
5 3 3 4 3 4 4 3 7 7 5 3 7 12 6 3 7 7 9 15 12 8 8 10 12 8 8 12 9 7 6 6 7 7 7 7 5 8 10 12 14 15 15 14 11 11 10 9 8
3 3 2 5 4 7 7 6 15 9 5 8 13 10 9 5 4 9 12 11 14 9 9 9 12 9 9 8 8 7 6 6 5 6 6 5 4 8 11 12 14 14 14 15 14 12 11 9 8
6 2 4 4 4 4 3 15 16 5 6 9 8 5 7 10 13 12 13 8 16 14 12 9 10 12 7 6 4 4 4 4 4 4 4 4 5 7 10 11 13 14 13 13 13 13 13 12 10
3 2 4 1 4 5 3 7 6 11 10 10 11 8 6 10 13 13 15 13 16 16 12 12 13 14 13 10 7 4 2 3 3 4 4 4 4 5 8 10 12 14 14 12 12 13 13 12 11
3 4 3 3 5 3 4 5 4 10 8 6 7 5 8 13 11 11 13 10 12 16 15 12 15 15 14 12 9 8 6 4 2 2 3 3 2 2 5 9 13 15 15 15 13 14 14 14 13
3 4 4 0 6 3 10 6 6 11 3 6 6 6 6 14 12 10 10 9 8 11 10 11 16 17 17 15 12 9 6 5 3 2 1 1 1 1 3 7 10 12 11 13 14 13 14 14 14
2 4 2 5 5 5 13 5 3 8 10 5 5 7 11 13 13 9 7 9 11 12 12 12 11 12 16 18 13 12 10 8 6 5 5 3 3 2 4 4 7 10 11 11 12 15 18 15 16
4 3 1 2 4 5 10 10 10 5 8 5 10 11 13 14 13 13 12 11 9 10 11 11 11 11 11 15 13 12 13 12 12 10 7 6 5 5 7 1 4 3 6 10 10 12 15 16 17
2 3 2 4 5 6 9 6 3 8 2 7 12 15 13 15 17 16 15 12 10 11 11 11 12 14 14 14 16 13 11 14 12 10 9 9 11 8 4 3 1 2 1 3 6 11 11 13 15
3 1 3 2 2 4 4 5 3 4 6 6 15 14 14 14 14 12 12 10 9 10 8 9 10 11 14 14 15 17 17 14 12 9 12 12 11 8 5 2 3 1 3 6 4 8 10 9 11
1 1 1 2 1 2 1 3 3 5 13 13 14 14 14 14 12 10 9 9 9 9 9 9 9 10 14 18 16 17 16 20 13 12 12 10 8 5 3 3 3 5 7 9 9 7 5 6 7
1 2 3 5 5 4 3 3 2 8 16 15 15 15 14 13 13 12 10 9 9 9 10 11 12 12 14 16 16 16 16 15 15 14 14 12 9 8 8 8 6 11 8 5 6 5 5 5 7
0 3 5 8 8 3 6 5 10 14 19 17 16 16 15 14 14 12 11 10 9 9 9 10 12 13 15 16 18 18 16 15 14 13 10 9 9 9 8 8 6 5 5 5 4 4 6 6 6
1 2 2 3 11 5 6 8 4 18 23 19 18 18 16 16 15 13 11 11 9 9 9 10 12 15 16 18 18 18 16 15 13 10 9 11 10 9 8 6 4 3 2 1 5 6 5 6 5
2 3 6 5 9 5 4 6 3 19 19 19 21 20 19 19 18 15 13 12 10 9 10 12 14 17 18 19 19 17 16 15 14 12 12 13 10 8 7 6 5 5 4 4 4 3 3 4 6
6 4 5 5 7 3 5 10 4 16 19 22 24 23 23 23 21 17 15 14 12 11 12 12 14 18 21 21 20 20 18 17 15 14 15 12 10 9 7 7 6 5 3 1 1 3 5 8 8
3 3 4 5 4 5 8 8 10 23 22 22 27 30 30 28 25 20 17 16 15 14 14 14 17 20 21 22 22 21 19 18 17 16 15 12 11 10 8 7 7 5 3 4 6 7 7 8 10
8 7 8 5 4 5 6 11 9 10 21 32 36 38 37 32 29 25 21 20 18 17 17 18 21 22 23 23 23 22 21 20 19 17 15 14 13 11 9 8 7 6 5 6 6 8 10 11 10
6 6 5 8 1 3 4 7 8 9 25 32 38 40 40 42 37 29 24 23 23 22 22 25 27 26 25 24 24 24 23 21 20 20 19 17 13 11 8 7 6 5 4 5 7 8 10 13 13
7 6 6 6 1 5 4 8 6 6 10 11 36 38 42 44 35 29 27 27 27 26 27 28 28 26 25 24 24 23 23 24 24 22 19 17 13 10 8 5 4 4 5 6 8 10 12 11 12
7 2 3 3 3 1 4 5 6 8 11 16 24 32 42 46 41 35 31 29 28 30 30 29 28 27 26 25 24 25 27 27 25 22 19 15 13 10 7 5 4 3 4 7 10 11 12 15 15
7 5 6 5 3 4 11 9 5 9 12 12 15 30 41 44 41 34 30 30 32 31 31 31 30 29 28 28 27 27 27 26 25 22 19 16 13 10 8 5 3 3 6 8 10 13 14 15 15
4 7 2 3 1 8 6 9 16 7 8 9 12 27 39 44 41 37 35 36 35 36 35 33 32 32 32 31 30 27 24 21 20 20 17 15 13 10 8 5 2 3 4 7 9 10 11 12 12
8 9 6 7 5 5 1 7 6 12 19 17 15 26 39 41 41 40 37 37 37 37 37 36 36 36 34 32 29 27 24 23 21 18 16 14 12 10 7 5 3 1 3 5 7 9 10 11 11
6 8 4 2 2 1 6 8 8 6 8 5 11 28 39 43 43 40 36 36 37 39 40 40 39 37 34 32 30 27 25 23 21 18 16 15 13 10 7 6 4 1 1 3 6 8 9 9 10
7 5 3 1 3 6 5 6 10 5 13 7 9 18 27 36 40 39 37 37 39 40 41 41 40 38 35 33 30 28 26 24 21 19 17 15 13 11 9 8 6 3 1 3 5 7 8 9 10
5 5 4 4 5 5 5 8 6 11 11 13 15 30 35 39 41 40 39 39 41 42 43 43 41 39 37 34 31 29 27 25 22 20 17 15 13 12 11 9 6 5 3 3 5 7 8 9 11
2 7 7 6 7 5 2 21 5 3 3 13 21 30 34 36 38 40 41 42 44 45 45 45 43 41 38 35 32 30 27 26 24 21 19 18 16 15 13 10 9 7 4 4 5 6 8 10 12
Wind_Direction
49 261 52 27 57 71 59 37 103 77 54 54 87 90 94 68 71 144 127 173 145 166 172 161 145 141 141 139 131 119 107 96 88 79 74 76 62 47 42 41 40 46 51 57 62 66 71 76 78
104 99 41 37 84 74 275 111 82 93 128 111 102 92 68 70 92 120 154 141 159 167 166 168 153 148 151 146 138 123 109 99 86 79 76 83 63 41 43 42 40 42 46 57 54 50 50 53 63
96 30 42 90 92 148 133 149 127 116 125 148 116 83 73 32 82 105 104 141 153 172 152 171 152 146 157 157 153 141 120 107 86 76 73 86 72 47 43 42 42 42 43 49 49 46 45 44 45
54 28 67 78 80 354 126 172 132 129 110 81 100 76 84 41 103 124 117 136 158 166 150 166 155 165 156 161 155 154 141 134 114 97 89 98 75 53 40 37 36 35 35 38 39 39 41 45 52
42 35 48 109 74 84 89 139 141 150 129 104 109 126 96 102 119 123 132 142 162 159 165 184 179 162 184 182 157 161 155 144 121 98 100 93 86 65 46 40 36 33 31 34 38 41 40 40 44
32 46 49 58 134 116 70 103 112 116 125 91 104 104 129 150 157 142 154 157 164 168 181 193 190 179 185 194 187 187 181 161 128 96 100 91 83 55 44 40 34 29 25 32 36 39 43 47 50
80 70 213 102 154 116 146 134 96 130 117 76 121 86 145 172 163 163 164 173 167 186 178 170 187 192 195 201 201 196 190 182 170 120 97 75 66 41 42 43 36 33 31 30 32 37 38 38 38
56 94 327 18 186 178 158 130 91 116 96 112 112 155 169 167 170 175 165 171 174 180 189 181 182 198 204 204 207 210 215 222 202 198 253 301 299 330 67 64 34 22 40 33 30 33 35 33 32
44 59 346 322 143 173 157 126 92 106 133 99 94 142 146 156 165 167 178 179 178 185 193 203 210 208 204 209 209 214 211 224 234 236 233 212 203 188 134 73 54 35 14 18 27 18 23 27 27
72 90 313 349 342 155 160 140 158 133 139 103 112 127 144 159 162 177 194 204 207 206 206 209 216 218 215 205 192 203 211 216 220 221 215 205 189 178 151 4 355 349 13 359 16 27 23 23 20
37 150 307 12 43 117 142 118 123 150 184 193 181 160 160 170 179 191 202 217 226 223 224 227 226 221 214 213 204 191 192 212 205 200 197 191 172 184 210 265 301 1 27 14 18 3 7 9 17
48 98 80 356 28 84 107 138 161 188 159 162 170 165 174 174 182 191 198 210 225 233 228 221 223 224 219 206 198 189 195 207 190 186 191 198 198 198 221 247 290 305 325 326 323 342 345 349 7
122 229 110 172 195 120 140 147 187 172 166 166 168 179 185 187 189 196 205 213 226 243 250 244 232 214 209 202 192 189 196 205 194 192 193 196 189 193 197 208 252 289 299 305 317 324 326 316 345
250 324 273 214 210 213 187 236 224 206 190 185 193 195 196 200 200 201 209 218 230 238 238 233 225 214 202 197 182 183 189 196 192 195 201 205 211 224 236 245 256 281 287 285 307 316 298 307 321
292 334 303 233 199 215 199 287 230 222 194 192 194 201 205 204 208 210 216 221 226 234 237 229 214 204 193 183 178 184 187 187 199 199 195 205 226 231 236 229 235 232 272 274 255 274 294 309 321
170 72 325 258 169 191 151 262 282 203 188 187 200 209 211 212 211 213 219 228 227 226 220 214 201 190 188 177 177 183 187 189 188 186 189 199 210 205 215 231 237 231 210 249 282 286 306 321 340
321 221 213 299 176 131 164 263 200 180 195 195 204 214 214 211 215 216 218 226 226 226 216 203 189 180 175 170 174 179 184 190 194 188 194 193 190 198 194 204 197 205 238 260 264 303 325 340 359
210 218 250 225 219 148 184 258 226 203 207 213 209 212 214 217 220 218 216 219 218 217 210 192 175 165 168 171 173 175 181 181 184 192 185 184 187 184 192 193 195 187 205 239 343 0 12 25 38
225 214 243 261 230 145 217 249 239 227 220 220 215 211 216 217 218 218 215 213 209 206 199 179 168 167 172 174 178 179 184 183 187 183 182 183 174 164 158 154 143 123 110 70 46 33 32 36 52
248 260 268 285 205 166 258 248 254 207 223 222 219 218 219 212 212 214 211 207 202 201 188 176 170 174 175 178 178 181 179 176 181 181 175 165 154 145 139 128 115 98 73 63 44 24 14 17 23
226 205 233 227 243 267 285 270 248 241 232 232 232 231 222 216 214 209 206 202 199 195 187 179 177 179 178 179 181 180 179 179 174 167 160 147 142 137 131 125 110 97 75 45 32 25 16 22 18
238 211 219 241 160 245 152 284 250 242 243 216 233 223 223 213 212 214 207 203 199 194 188 184 182 181 183 184 186 190 186 175 164 159 153 148 146 143 141 129 106 74 52 43 30 25 21 22 25
228 158 191 213 197 331 280 290 262 217 248 248 242 221 215 214 210 208 208 207 197 197 194 189 187 187 189 191 192 187 178 170 162 161 160 157 153 152 145 130 100 72 54 39 31 23 17 14 11
153 78 40 39 69 259 225 216 199 239 234 257 243 221 209 206 205 206 207 202 199 197 197 193 191 191 190 186 182 181 179 174 170 168 168 163 162 159 152 141 119 78 45 34 24 19 11 7 6
121 103 304 318 307 245 217 232 246 247 248 228 227 205 202 201 198 199 199 200 199 198 195 193 191 188 183 179 180 182 184 182 179 175 173 170 168 167 166 157 131 67 34 22 15 7 1 355 353
190 162 167 221 216 261 57 238 250 225 247 262 251 223 195 197 200 202 204 204 200 199 195 192 188 187 183 183 184 184 187 187 182 180 179 178 179 179 175 169 155 96 27 11 5 360 353 346 343
201 208 186 10 59 346 223 276 300 243 271 281 203 191 192 198 200 203 205 204 201 197 194 191 188 188 188 187 189 189 190 191 189 187 187 189 186 185 185 183 190 209 333 2 0 354 348 344 339
155 162 82 58 221 252 258 252 234 213 238 218 211 186 191 197 202 204 206 205 201 197 193 191 192 192 192 193 194 196 196 195 197 198 197 195 197 199 198 202 206 209 246 345 353 355 348 342 334
156 185 190 147 167 214 277 256 204 217 221 207 208 200 199 203 206 206 206 206 202 197 195 195 195 196 196 197 198 199 199 200 201 200 201 205 209 211 212 209 211 220 245 322 350 352 344 340 331
216 180 164 176 217 235 202 262 176 130 266 207 213 208 212 212 210 210 208 206 202 200 200 200 199 200 201 201 202 202 205 206 204 204 207 211 214 216 216 217 221 227 245 296 329 336 339 335 332